CW4525 Weather Reports


time (UTC)temp
C
wind
direction
speed
KPH
gust
KPH
rain 1hr
cm
rain 24hr
cm
rain mn
cm
humidity
%
barometer
mb
20240222104547 -5 132 9.7 14.5 0.00 0.00 0.00 90 1017.1
20240222103009 -5 118 8.0 12.9 0.00 0.00 0.00 90 1017.4
20240222101507 -5 119 6.4 11.3 0.00 0.00 0.00 90 1017.3
20240222100011 -5 111 6.4 11.3 0.00 0.00 0.00 90 1017.2
20240222094511 -5 114 3.2 8.0 0.00 0.00 0.00 90 1017.5
20240222093006 -5 69 3.2 9.7 0.00 0.00 0.00 89 1017.6
20240222091503 -5 126 4.8 9.7 0.00 0.00 0.00 89 1017.7
20240222090002 -5 134 6.4 9.7 0.00 0.00 0.00 89 1017.9
20240222084502 -5 125 8.0 11.3 0.00 0.00 0.00 89 1018.2
20240222083108 -5 115 9.7 12.9 0.00 0.00 0.00 89 1018.3
20240222081556 -5 113 8.0 12.9 0.00 0.00 0.00 88 1018.7
20240222080055 -5 69 3.2 8.0 0.00 0.00 0.00 88 1018.9
20240222074600 -5 128 3.2 8.0 0.00 0.00 0.00 87 1019.3
20240222073101 -4 252 0.0 1.6 0.00 0.00 0.00 86 1019.4
20240222071554 -4 252 0.0 9.7 0.00 0.00 0.00 87 1019.5
20240222070048 -4 146 4.8 9.7 0.00 0.00 0.00 86 1019.8
20240222064547 -3 108 4.8 9.7 0.00 0.00 0.00 86 1019.9
20240222063047 -4 131 8.0 12.9 0.00 0.00 0.00 86 1020.3
20240222061543 -4 142 4.8 9.7 0.00 0.00 0.00 86 1020.5
20240222060041 -3 138 1.6 3.2 0.00 0.00 0.00 85 1020.7
20240222054539 -3 138 0.0 6.4 0.00 0.00 0.00 84 1020.8
20240222053038 -3 138 1.6 6.4 0.00 0.00 0.00 84 1021.0
20240222051555 -3 121 1.6 6.4 0.00 0.00 0.00 84 1021.4
20240222050049 -3 161 4.8 12.9 0.00 0.00 0.00 84 1021.5
20240222044531 -3 147 0.0 6.4 0.00 0.00 0.00 83 1021.6
20240222043026 -3 131 4.8 9.7 0.00 0.00 0.00 83 1021.6
20240222041521 -3 130 4.8 11.3 0.00 0.00 0.00 82 1021.7
20240222040017 -3 113 8.0 14.5 0.00 0.00 0.00 82 1022.1
20240222034513 -3 140 8.0 14.5 0.00 0.00 0.00 82 1022.4
20240222033015 -2 143 8.0 12.9 0.00 0.00 0.00 82 1022.6
20240222031503 -2 134 6.4 14.5 0.00 0.00 0.00 82 1022.8
20240222030101 -2 128 6.4 14.5 0.00 0.00 0.00 82 1023.0
20240222024556 -2 130 8.0 12.9 0.00 0.00 0.00 82 1023.1
20240222023103 -2 117 6.4 12.9 0.00 0.00 0.00 81 1023.2
20240222021551 -2 138 4.8 9.7 0.00 0.00 0.00 80 1023.4
20240222020042 -2 111 1.6 14.5 0.00 0.00 0.00 80 1023.4
20240222014539 -2 132 6.4 14.5 0.00 0.00 0.00 79 1023.4
20240222013036 -2 117 9.7 16.1 0.00 0.00 0.00 78 1023.6
20240222011536 -2 155 11.3 19.3 0.00 0.00 0.00 78 1023.7
20240222010027 -1 136 12.9 19.3 0.00 0.00 0.00 77 1023.8
20240222004521 -1 139 9.7 20.9 0.00 0.00 0.00 76 1023.9
20240222003016 -1 126 9.7 19.3 0.00 0.00 0.00 74 1024.2
20240222001512 -1 176 11.3 22.5 0.00 0.00 0.00 72 1024.2
20240222000009 -1 121 11.3 20.9 0.00 0.00 0.00 71 1024.2
20240221234505 0 117 11.3 22.5 0.00 0.00 0.00 69 1024.2
20240221233103 0 146 12.9 17.7 0.00 0.00 0.00 66 1024.2
20240221233002 0 100 11.3 17.7 0.00 0.00 0.00 66 1024.2
20240221231558 0 107 8.0 19.3 0.00 0.00 0.00 65 1024.2
20240221230052 0 130 9.7 24.1 0.00 0.00 0.00 61 1024.2
20240221224548 1 96 6.4 11.3 0.00 0.00 0.00 57 1024.2
20240221223047 1 127 4.8 14.5 0.00 0.00 0.00 55 1024.2
20240221221541 2 86 8.0 16.1 0.00 0.00 0.00 53 1024.2
20240221220041 2 79 9.7 19.3 0.00 0.00 0.00 51 1024.2
20240221214537 2 111 4.8 17.7 0.00 0.00 0.00 48 1024.3
20240221213033 3 116 6.4 12.9 0.00 0.00 0.00 46 1024.4
20240221211530 3 142 11.3 20.9 0.00 0.00 0.00 46 1024.5
20240221210025 4 156 8.0 20.9 0.00 0.00 0.00 44 1024.5
20240221204621 4 138 8.0 16.1 0.00 0.00 0.00 44 1024.6
20240221203018 5 184 11.3 16.1 0.00 0.00 0.00 43 1024.6
20240221201513 5 198 6.4 17.7 0.00 0.00 0.00 42 1024.7
20240221200008 5 159 9.7 14.5 0.00 0.00 0.00 43 1024.7
20240221194503 5 136 8.0 16.1 0.00 0.00 0.00 43 1024.9
20240221193100 5 146 3.2 17.7 0.00 0.00 0.00 45 1025.3
20240221191555 5 115 4.8 14.5 0.00 0.00 0.00 48 1025.4
20240221190054 5 97 8.0 16.1 0.00 0.00 0.00 48 1025.8
20240221184549 4 166 6.4 14.5 0.00 0.00 0.00 47 1026.1
20240221183045 5 103 11.3 16.1 0.00 0.00 0.00 47 1026.4
20240221181545 4 103 9.7 17.7 0.00 0.00 0.00 48 1026.8
20240221180031 3 142 6.4 17.7 0.00 0.00 0.00 49 1027.1
20240221174528 3 90 6.4 20.9 0.00 0.00 0.00 52 1027.5
20240221173032 3 205 8.0 16.1 0.00 0.00 0.00 52 1027.9
20240221171534 2 30 8.0 14.5 0.00 0.00 0.00 55 1028.4
20240221170021 2 91 6.4 14.5 0.00 0.00 0.00 54 1028.7
20240221164519 2 40 6.4 16.1 0.00 0.00 0.00 56 1029.1
20240221163016 2 121 8.0 22.5 0.00 0.00 0.00 58 1029.5
20240221161514 1 179 8.0 22.5 0.00 0.00 0.00 59 1029.7
20240221160014 1 101 4.8 14.5 0.00 0.00 0.00 62 1030.0
20240221154509 0 151 4.8 16.1 0.00 0.00 0.00 66 1030.2
20240221153001 0 84 8.0 14.5 0.00 0.00 0.00 68 1030.2
20240221151558 -1 332 0.0 8.0 0.00 0.00 0.00 71 1030.4
20240221150052 -2 317 4.8 9.7 0.00 0.00 0.00 76 1030.7
20240221144548 -3 329 1.6 8.0 0.00 0.00 0.00 77 1030.8
20240221143044 -5 323 3.2 8.0 0.00 0.00 0.00 79 1030.8
20240221141549 -5 331 3.2 8.0 0.00 0.00 0.00 79 1030.8
20240221140042 -6 324 0.0 0.0 0.00 0.00 0.00 82 1031.0
20240221134541 -6 337 0.0 0.0 0.00 0.00 0.00 85 1031.0
20240221133040 -7 338 0.0 0.0 0.00 0.00 0.00 86 1031.0
20240221131537 -8 338 0.0 0.0 0.00 0.00 0.00 87 1031.1
20240221130040 -8 342 0.0 0.0 0.00 0.00 0.00 87 1031.0
20240221124536 -8 342 0.0 0.0 0.00 0.00 0.00 87 1031.0
20240221123056 -8 342 0.0 0.0 0.00 0.00 0.00 87 1030.9
20240221121531 -8 342 0.0 0.0 0.00 0.00 0.00 87 1030.6
20240221120033 -9 342 0.0 1.6 0.00 0.00 0.00 86 1030.5
20240221114530 -9 342 0.0 0.0 0.00 0.00 0.00 86 1030.5
20240221113028 -8 342 0.0 1.6 0.00 0.00 0.00 85 1030.4
20240221111530 -8 342 0.0 0.0 0.00 0.00 0.00 83 1030.3
20240221110023 -8 342 0.0 0.0 0.00 0.00 0.00 83 1030.4